Regional Weather Roundup
Issued by NWS Upton, NY

Home | Current Version | Previous Version | Text Only | Print | Product List | Glossary On
Versions: 1 2 3 4 5 6 7 8 9 10 11 12 13 14 15 16 17 18 19 20 21 22 23 24 25 26 27 28 29 30 31 32 33 34 35 36 37 38 39 40 41 42 43 44 45 46 47 48 49 50
000
ASUS41 KOKX 190907
RWROKX

REGIONAL WEATHER ROUNDUP
NATIONAL WEATHER SERVICE NEW YORK NY
500 AM EDT SUN APR 19 2015

NOTE: "FAIR" INDICATES FEW OR NO CLOUDS BELOW 12,000 FEET WITH NO
SIGNIFICANT WEATHER AND/OR OBSTRUCTIONS TO VISIBILITY.

NYZ071-072-176-178-NJZ106-104-191000-
NEW YORK CITY METRO AREA


CITY           SKY/WX    TMP DP  RH WIND       PRES   REMARKS
CENTRAL PARK   PTCLDY    55  23  28 NE9       30.19R
LAGUARDIA APRT MOCLDY    54  25  32 N7        30.16R
KENNEDY INTL   FAIR      53  22  29 N7        30.17R
NEWARK/LIBERTY PTCLDY    51  25  36 NE9       30.17R
BRNX BOT. GARD   N/A     52  27  37 N5        30.18R
TETERBORO      PTCLDY    53  23  31 NE6       30.16R
$$

NYZ177-179-078>081-191000-
LONG ISLAND NEW YORK

CITY           SKY/WX    TMP DP  RH WIND       PRES   REMARKS
FARMINGDALE    PTCLDY    51  23  33 NE5       30.16R
ISLIP          CLEAR     45  34  65 CALM      30.15R
SHIRLEY        PTCLDY    41  33  73 CALM      30.17R
WESTHAMPTON    PTCLDY    34  29  82 CALM      30.17R
MONTAUK POINT    N/A     44  38  79 N3        30.17R
$$

NYZ052-065-067-191000-
HUDSON VALLEY

CITY           SKY/WX    TMP DP  RH WIND       PRES   REMARKS
WHITE PLAINS   CLEAR     48  24  39 N6        30.16R
NEWBURGH       CLEAR     46  30  53 NE9       30.18R
MONTGOMERY     CLEAR     46  28  49 NE8       30.17R
POUGHKEEPSIE   CLEAR     47  29  49 NE8       30.17R
ALBANY         PTCLDY    41  30  65 N6        30.24R
$$

NJZ001-105-106-008-010-013-015-019>022-104-191000-
NEW JERSEY

CITY           SKY/WX    TMP DP  RH WIND       PRES   REMARKS
NEWARK/LIBERTY PTCLDY    51  25  36 NE9       30.17R
TETERBORO      PTCLDY    53  23  31 NE6       30.16R
CALDWELL       PTCLDY    51  22  31 NE3       30.17R
MORRISTOWN     PTCLDY    50  23  34 CALM      30.17R
SOMERVILLE     CLEAR     46  27  47 VRB5      30.14R
SUSSEX         FAIR      42  27  55 CALM      30.18R
ANDOVER          N/A     42  34  73 CALM      30.16R
TRENTON        PTCLDY    54  24  31 NE10      30.13R
MILLVILLE      MOCLDY    55  33  43 NE7       30.10R
ATLANTIC CITY  MOCLDY    55  33  43 NE9       30.11R
WRIGHTSTOWN    PTCLDY    50  30  47 E7        30.10R
TOMS RIVER     MOCLDY    55  27  33 NE14      30.14R
BELMAR         PTCLDY    55  23  28 NE10      30.15R
$$

PAZ047>061-062-071-191000-
EASTERN PENNSYLVANIA

CITY           SKY/WX    TMP DP  RH WIND       PRES   REMARKS
PHILADELPHIA   MOCLDY    59  25  27 NE9       30.12R
ALLENTOWN      PTCLDY    44  27  51 CALM      30.14S
SCRANTON       CLEAR     46  24  42 E5        30.15R
$$

CTZ002-004>006-009-010-012-RIZ004-006-007-MAZ004-011-015-191000-
SOUTHERN NEW ENGLAND
 IN CT

CITY           SKY/WX    TMP DP  RH WIND       PRES   REMARKS
BRADLEY INTL   CLEAR     46  31  55 N10       30.17R
HARTFORD       CLEAR     47  32  56 N8        30.17R
DANBURY        CLEAR     47  25  42 N5        30.17R
WTRBRY/OXFORD  CLEAR     45  27  49 N9        30.17S
BRIDGEPORT     CLEAR     51  26  37 N5        30.16R
MERIDEN        CLEAR     47  30  51 N7        30.17R
NEW HAVEN      CLEAR     43  28  55 CALM      30.16R
CHESTER        FAIR      48  30  49 N5        30.16R
GROTON         CLEAR     43  40  89 N6        30.16R
WILLIMANTIC    CLEAR     46  32  58 N7        30.17R

 IN RI

CITY           SKY/WX    TMP DP  RH WIND       PRES   REMARKS
PROVIDENCE     CLEAR     47  30  51 N14       30.18R
BLOCK ISLAND   CLEAR     43  36  75 N8        30.15R
WESTERLY       CLEAR     41  38  89 N3        30.17R

 IN MA

CITY           SKY/WX    TMP DP  RH WIND       PRES   REMARKS
BOSTON         CLEAR     45  32  60 NW10      30.17R
WORCESTER      CLEAR     42  28  57 NW8       30.17R
WESTFIELD      CLEAR     43  30  60 N7        30.19R
PROVINCETOWN   CLEAR    N/A N/A N/A N10       30.14R
NANTUCKET      CLEAR     43  38  82 N9        30.14R
$$

ANZ330-335-338-340-345-350-353-355-191000-
COASTAL MARINE OBSERVATIONS


STATION/POSITION TIME  SKY/WX   TEMP    WIND        PRES    VSBY  WAVE
                                AIR SEA DIR/SP/G                  HT/PER
                 (UTC)          (F)     (DEG/KT/KT) (MB)    (MI)  (FT/S)
NY HARB ENTRANCE 0850            49 47   60/ 10/ 10 1020.8          2/13
4S FIRE IS       0803               45                N/A           2/ 7
20S FIRE ISLAND  0750               44              1020.8          2/ 7
23SW MTP         NOT AVBL
HUDSON CANYON    NOT AVBL
EXECUTION ROCKS  NOT AVBL
WESTERN LI SOUND NOT AVBL
CENTRAL LI SOUND NOT AVBL
EASTERN LI SOUND 0800            44      30/  4/  4   N/A
ROBBINS REEF     0800            57      40/ 12/ 14 1019.5
$$


>>>>>>>>>>>>>>>>>>>>>>>>>>>> KEY <<<<<<<<<<<<<<<<<<<<<<<<<<<
>                                                          <
>     SKY/WX - SKY CONDITION/PRESENT WEATHER               <
>     TMP    - TEMPERATURE IN FAHRENHEIT                   <
>     DP     - DEWPOINT IN FAHRENHEIT                      <
>     RH     - RELATIVE HUMIDITY IN PERCENT                <
>     WIND   - DIRECTION AND SPEED IN MPH                  <
>     PRES   - MEAN SEA LEVEL PRESSURE IN INCHES OF HG     <
>     WCI    - WIND CHILL INDEX                            <
>     VSB    - VISIBILITY IN MILES                         <
>     HX     - HEAT INDEX                                  <
>     TC     - TEMPERATURE IN CELSIUS                      <
>     VRB    - VARIABLE WIND DIRECTION                     <
>                                                          <
>>>>>>>>>>>>>>>>>>>>>>>>>>>> KEY <<<<<<<<<<<<<<<<<<<<<<<<<<<




USA.gov is the U.S. government's official web portal to all federal, state and local government web resources and services.